User: anonymous   Login
Location: アルンシュタイン
(50.0000°N, 10.0000°E)
Time: 08:01:26
(UTC+02:00)
Language:

Oscar 19 - Orbit

View from above orbital plane
View from above orbital plane
View from above satellite
View from above satellite

Ground track
Ground track

The orbit data is extracted from the following two-line orbital elements,

1 20442U 90005G   22221.86237983  .00000060  00000-0  38466-4 0  9998
2 20442  98.7978 187.5508 0012110  17.5170 342.6428 14.33075916700759
Epoch (UTC): 09 August 2022 20:41:49
Eccentricity: 0.0012110
inclination: 98.7978°
perigee height: 773 km
apogee height: 790 km
right ascension of ascending node: 187.5508°
argument of perigee: 17.5170°
revolutions per day: 14.33075916
mean anomaly at epoch: 342.6428°
orbit number at epoch: 70075

The dashed part of the orbit path shows where the satellite is in the earth's shadow,  

DLR